Flag for Germany Weather past 2 weeks in Flensburg, Schleswig-Holstein, Germany

Now
41 °F

Partly sunny.


Feels Like: 32 °F
Forecast: 33 / 38 °F
Wind: 17 mph from Southwest

Location: Soenderborg Lufthavn

Current Time: Jan 28, 2015 at 2:00:42 PM

Latest Report: Jan 28, 2015 at 12:50 PM


Visibility: 4 mi

Pressure: 29.42 "Hg

Humidity: 81%

Dew point: 36 °F

Location of FlensburgLocation

Historic Weather in Flensburg — Graph

°F

Flensburg temperature yesterday

Maximum temperature yesterday: 41 °F (at 10:50 AM)
Minimum temperature yesterday: 37 °F (at 7:50 AM)
Average temperature yesterday: 39 °F

Past Weeks' High & Low Weather Summary

 TemperatureHumidityPressure
High48 °F (Jan 13, 12:20 PM)100% (Jan 19, 8:20 AM)30.27 "Hg (Jan 19, 8:20 AM)
Low27 °F (Jan 23, 6:20 AM)75% (Jan 14, 4:50 PM)29.24 "Hg (Jan 15, 1:50 PM)
Average36 °F92%29.87 "Hg
* Reported Jan 13 12:20 PM — Jan 28 12:50 PM, Flensburg, Weather by CustomWeather, © 2014

Note: Actual official high and low records may vary slightly from our data, if they occured in-between our weather recording intervals... More about our weather records

Advertising

Flensburg weather history for previous 24 hours

 ConditionsComfort  
Time TempWeatherWind HumidityBarometerVisibility
12:50 PM
Jan 28
41 °FPartly sunny.17 mph81%29.42 "Hg4 mi
11:50 AM41 °FBroken clouds.18 mph87%29.47 "Hg4 mi
10:50 AM41 °FDrizzle. Partly sunny.18 mph87%29.53 "Hg3 mi
9:50 AM41 °FDrizzle. Broken clouds.16 mph87%29.59 "Hg3 mi
9:23 AM41 °FDrizzle. Partly sunny.16 mph93%29.62 "Hg3 mi
8:50 AM41 °FDrizzle. Partly sunny.13 mph93%29.65 "Hg4 mi
8:20 AM41 °FDrizzle. Broken clouds.14 mph93%29.65 "Hg3 mi
7:20 AM39 °FDrizzle. Low clouds.13 mph100%29.71 "Hg3 mi
6:50 AM41 °FLow clouds.12 mph93%29.71 "Hg4 mi
6:20 AM41 °FPassing clouds.10 mph93%29.74 "Hg4 mi
11:50 PM
Jan 27
39 °FFog.7 mph93%29.95 "Hg2 mi
11:20 PM39 °FDense fog.7 mph93%29.95 "Hg1 mi
10:50 PM37 °FFog.7 mph100%29.95 "Hg1 mi
10:20 PM37 °FFog.8 mph100%29.98 "Hg1 mi
9:50 PM37 °FFog.8 mph93%29.98 "Hg2 mi
8:50 PM37 °FPassing clouds.7 mph93%29.98 "Hg5 mi
7:50 PM37 °FPassing clouds.7 mph93%30.01 "HgN/A
6:50 PM37 °FPassing clouds.8 mph87%29.98 "HgN/A
5:50 PM39 °FPassing clouds.6 mph81%29.98 "HgN/A
4:50 PM41 °FPassing clouds.7 mph76%29.98 "HgN/A
3:50 PM41 °FPassing clouds.13 mph81%29.98 "HgN/A
3:20 PM41 °FPassing clouds.13 mph81%29.98 "HgN/A
Weather by CustomWeather, © 2014

See weather overviewHow to use our weather pages